| time (UTC) | temp F | wind direction | speed knots | gust knots | rain 1hr in | rain 24hr in | rain mn in | humidity % | barometer mb |
| 20260505093049 | 56 | 177 | 0.9 | 3.5 | 0.00 | 0.00 | 0.00 | 76 | 1014.8 |
| 20260505091549 | 57 | 201 | 0.0 | 7.0 | 0.00 | 0.00 | 0.00 | 76 | 1014.7 |
| 20260505090052 | 56 | 236 | 1.7 | 3.5 | 0.00 | 0.00 | 0.00 | 75 | 1014.6 |
| 20260505084545 | 56 | 187 | 1.7 | 5.2 | 0.00 | 0.00 | 0.00 | 75 | 1014.4 |
| 20260505083044 | 55 | 169 | 2.6 | 7.8 | 0.00 | 0.00 | 0.00 | 76 | 1014.5 |
| 20260505081547 | 55 | 248 | 1.7 | 4.3 | 0.00 | 0.00 | 0.00 | 75 | 1014.3 |
| 20260505080049 | 56 | 245 | 0.0 | 2.6 | 0.00 | 0.00 | 0.00 | 73 | 1014.4 |
| 20260505074535 | 57 | 202 | 0.0 | 0.9 | 0.00 | 0.00 | 0.00 | 71 | 1014.3 |
| 20260505073044 | 58 | 202 | 0.0 | 1.7 | 0.00 | 0.00 | 0.00 | 69 | 1014.2 |
| 20260505071529 | 59 | 198 | 0.0 | 2.6 | 0.00 | 0.00 | 0.00 | 68 | 1014.0 |
| 20260505070027 | 59 | 202 | 0.9 | 3.5 | 0.00 | 0.00 | 0.00 | 66 | 1013.9 |
| 20260505064524 | 60 | 253 | 0.9 | 3.5 | 0.00 | 0.00 | 0.00 | 64 | 1014.0 |
| 20260505063023 | 61 | 205 | 0.9 | 3.5 | 0.00 | 0.00 | 0.00 | 62 | 1013.9 |
| 20260505061523 | 62 | 183 | 0.0 | 3.5 | 0.00 | 0.00 | 0.00 | 61 | 1013.8 |
| 20260505060027 | 62 | 206 | 1.7 | 7.0 | 0.00 | 0.00 | 0.00 | 59 | 1013.9 |
| 20260505054523 | 62 | 185 | 2.6 | 7.8 | 0.00 | 0.00 | 0.00 | 59 | 1013.9 |
| 20260505053021 | 62 | 179 | 1.7 | 9.6 | 0.00 | 0.00 | 0.00 | 59 | 1013.8 |
| 20260505051523 | 62 | 169 | 1.7 | 6.1 | 0.00 | 0.00 | 0.00 | 59 | 1013.9 |
| 20260505041521 | 61 | 220 | 0.9 | 3.5 | 0.00 | 0.00 | 0.00 | 61 | 1013.8 |
| 20260505040011 | 60 | 275 | 1.7 | 5.2 | 0.00 | 0.00 | 0.00 | 60 | 1013.7 |
| 20260505034510 | 60 | 230 | 1.7 | 3.5 | 0.00 | 0.00 | 0.00 | 63 | 1013.8 |
| 20260505033008 | 59 | 228 | 1.7 | 5.2 | 0.00 | 0.00 | 0.00 | 64 | 1013.7 |
| 20260505031507 | 59 | 226 | 0.9 | 3.5 | 0.00 | 0.00 | 0.00 | 66 | 1013.6 |
| 20260505030008 | 60 | 197 | 0.9 | 3.5 | 0.00 | 0.00 | 0.00 | 66 | 1013.7 |
| 20260505024506 | 60 | 213 | 0.0 | 2.6 | 0.00 | 0.00 | 0.00 | 65 | 1013.7 |
| 20260505023005 | 61 | 214 | 0.0 | 2.6 | 0.00 | 0.00 | 0.00 | 64 | 1013.6 |
| 20260505021507 | 62 | 208 | 0.0 | 0.9 | 0.00 | 0.00 | 0.00 | 62 | 1013.6 |
| 20260505020004 | 63 | 208 | 0.0 | 2.6 | 0.00 | 0.00 | 0.00 | 61 | 1013.6 |
| 20260505014504 | 64 | 207 | 0.0 | 2.6 | 0.00 | 0.00 | 0.00 | 60 | 1013.6 |
| 20260505013002 | 65 | 206 | 0.0 | 2.6 | 0.00 | 0.00 | 0.00 | 59 | 1013.3 |
| 20260505011502 | 66 | 231 | 0.9 | 2.6 | 0.00 | 0.00 | 0.00 | 57 | 1013.2 |
| 20260505010002 | 68 | 229 | 0.0 | 1.7 | 0.00 | 0.00 | 0.00 | 54 | 1012.9 |
| 20260505004503 | 70 | 230 | 0.0 | 0.9 | 0.00 | 0.00 | 0.00 | 53 | 1012.9 |
| 20260505003101 | 71 | 230 | 0.0 | 0.9 | 0.00 | 0.00 | 0.00 | 50 | 1012.8 |
| 20260505001632 | 73 | 230 | 0.0 | 1.7 | 0.00 | 0.00 | 0.00 | 49 | 1012.8 |
| 20260505000138 | 74 | 231 | 0.9 | 3.5 | 0.00 | 0.00 | 0.00 | 47 | 1012.8 |
| 20260504234614 | 75 | 154 | 1.7 | 4.3 | 0.00 | 0.00 | 0.00 | 43 | 1012.6 |
| 20260504233107 | 75 | 198 | 1.7 | 5.2 | 0.00 | 0.00 | 0.00 | 43 | 1012.3 |
| 20260504231558 | 76 | 192 | 2.6 | 7.8 | 0.00 | 0.00 | 0.00 | 42 | 1012.3 |
| 20260504230059 | 76 | 219 | 0.9 | 7.0 | 0.00 | 0.00 | 0.00 | 43 | 1012.3 |
| 20260504224609 | 77 | 181 | 1.7 | 6.1 | 0.00 | 0.00 | 0.00 | 41 | 1012.4 |
| 20260504223055 | 78 | 230 | 4.3 | 9.6 | 0.00 | 0.00 | 0.00 | 40 | 1012.4 |
| 20260504221556 | 78 | 167 | 4.3 | 7.8 | 0.00 | 0.00 | 0.00 | 40 | 1012.6 |
| 20260504220058 | 78 | 346 | 1.7 | 7.8 | 0.00 | 0.00 | 0.00 | 40 | 1012.5 |
| 20260504214553 | 79 | 148 | 3.5 | 9.6 | 0.00 | 0.00 | 0.00 | 39 | 1012.5 |
| 20260504213124 | 79 | 42 | 0.9 | 9.6 | 0.00 | 0.00 | 0.00 | 39 | 1012.5 |
| 20260504211555 | 80 | 170 | 1.7 | 8.7 | 0.00 | 0.00 | 0.00 | 40 | 1012.6 |
| 20260504210052 | 80 | 252 | 1.7 | 7.8 | 0.00 | 0.00 | 0.00 | 38 | 1012.5 |
| 20260504204555 | 81 | 212 | 4.3 | 11.3 | 0.00 | 0.00 | 0.00 | 38 | 1012.5 |
| 20260504203104 | 81 | 171 | 2.6 | 8.7 | 0.00 | 0.00 | 0.00 | 37 | 1012.8 |
| 20260504201548 | 81 | 222 | 1.7 | 7.8 | 0.00 | 0.00 | 0.00 | 36 | 1012.9 |
| 20260504200050 | 81 | 230 | 4.3 | 9.6 | 0.00 | 0.00 | 0.00 | 36 | 1013.1 |
| 20260504194558 | 82 | 163 | 1.7 | 9.6 | 0.00 | 0.00 | 0.00 | 35 | 1013.1 |
| 20260504193051 | 80 | 245 | 1.7 | 8.7 | 0.00 | 0.00 | 0.00 | 36 | 1013.4 |
| 20260504191540 | 80 | 184 | 5.2 | 13.0 | 0.00 | 0.00 | 0.00 | 36 | 1013.8 |
| 20260504190041 | 80 | 133 | 2.6 | 8.7 | 0.00 | 0.00 | 0.00 | 36 | 1014.1 |
| 20260504184536 | 80 | 15 | 2.6 | 8.7 | 0.00 | 0.00 | 0.00 | 36 | 1014.2 |
| 20260504183035 | 80 | 181 | 4.3 | 8.7 | 0.00 | 0.00 | 0.00 | 36 | 1014.4 |
| 20260504181532 | 79 | 194 | 1.7 | 7.0 | 0.00 | 0.00 | 0.00 | 36 | 1014.5 |
| 20260504180031 | 78 | 202 | 3.5 | 7.8 | 0.00 | 0.00 | 0.00 | 36 | 1014.4 |
| 20260504174529 | 77 | 218 | 4.3 | 8.7 | 0.00 | 0.00 | 0.00 | 35 | 1014.7 |
| 20260504173036 | 78 | 123 | 3.5 | 7.8 | 0.00 | 0.00 | 0.00 | 36 | 1014.6 |
| 20260504171525 | 77 | 213 | 2.6 | 6.1 | 0.00 | 0.00 | 0.00 | 36 | 1014.8 |
| 20260504110116 | 37 | 10 | 0.0 | 0.9 | 0.00 | 0.00 | 0.00 | 90 | 1017.4 |